Flag for Germany Weather past 2 weeks in Karlsruhe, Baden-Württemberg, Germany

Now
66 °F

Sunny.


Feels Like: 66 °F
Forecast: 55 / 69 °F
Wind: 8 mph from Northeast

Location: Karlsruhe - Baden Wurttemberg

Current Time: Sep 2, 2014 at 7:25:44 PM

Latest Report: Sep 2, 2014 at 6:50 PM


Visibility: 10 mi

Pressure: 30.12 "Hg

Humidity: 60%

Dew point: 52 °F

Location of KarlsruheLocation

Historic Weather in Karlsruhe — Graph

°F

Karlsruhe temperature yesterday

Maximum temperature yesterday: 66 °F (at 4:50 PM)
Minimum temperature yesterday: 54 °F (at 12:50 AM)
Average temperature yesterday: 59 °F

Past Weeks' High & Low Weather Summary

 TemperatureHumidityPressure
High75 °F (Aug 28, 3:20 PM)94% (Aug 19, 1:50 AM)30.15 "Hg (Aug 19, 1:50 AM)
Low45 °F (Aug 25, 4:50 AM)38% (Aug 19, 5:50 PM)29.68 "Hg (Aug 26, 4:50 AM)
Average61 °F73%30.01 "Hg
* Reported Aug 18 6:20 PM — Sep 2 6:20 PM, Karlsruhe, Weather by CustomWeather, © 2014

Note: Actual official high and low records may vary slightly from our data, if they occured in-between our weather recording intervals... More about our weather records

Advertising

Karlsruhe weather history for previous 24 hours

 ConditionsComfort  
Time TempWeatherWind HumidityBarometerVisibility
6:20 PM
Sep 2
66 °FSunny.8 mph60%30.12 "Hg10 mi
5:50 PM68 °FPassing clouds.8 mph56%30.12 "HgN/A
5:20 PM68 °FFog.8 mph56%30.12 "HgN/A
4:50 PM68 °FPassing clouds.8 mph56%30.12 "HgN/A
4:20 PM68 °FScattered clouds.8 mph53%30.12 "HgN/A
3:50 PM70 °FScattered clouds.7 mph53%30.12 "HgN/A
3:20 PM68 °FScattered clouds.8 mph56%30.12 "HgN/A
2:50 PM68 °FScattered clouds.7 mph56%30.12 "HgN/A
2:20 PM68 °FScattered clouds.7 mph56%30.15 "HgN/A
1:50 PM68 °FScattered clouds.7 mph56%30.15 "HgN/A
1:20 PM66 °FBroken clouds.6 mph60%30.15 "HgN/A
12:50 PM66 °FBroken clouds.8 mph60%30.15 "HgN/A
12:20 PM66 °FScattered clouds.6 mph60%30.15 "HgN/A
11:50 AM66 °FScattered clouds.5 mph64%30.15 "HgN/A
11:20 AM64 °FScattered clouds.6 mph64%30.15 "HgN/A
10:50 AM64 °FPassing clouds.5 mph68%30.15 "HgN/A
10:20 AM63 °FPassing clouds.3 mph73%30.15 "HgN/A
9:50 AM63 °FPassing clouds.2 mph73%30.15 "HgN/A
9:20 AM63 °FSunny.1 mph73%30.15 "Hg10 mi
8:50 AM59 °FSunny.3 mph82%30.15 "Hg10 mi
8:20 AM57 °FSunny.2 mph88%30.15 "Hg10 mi
7:50 AM55 °FSunny.2 mph88%30.15 "Hg10 mi
7:20 AM55 °FClear.1 mph88%30.15 "Hg10 mi
6:50 AM55 °FClear.1 mph88%30.15 "Hg10 mi
6:20 AM55 °FClear.No wind88%30.15 "Hg10 mi
5:50 AM55 °FClear.No wind88%30.12 "Hg10 mi
5:20 AM55 °FClear.No wind88%30.12 "Hg10 mi
4:50 AM55 °FClear.2 mph88%30.15 "Hg10 mi
12:20 AM57 °FClear.1 mph82%30.15 "Hg10 mi
11:50 PM
Sep 1
57 °FClear.No wind88%30.15 "Hg10 mi
11:20 PM59 °FClear.2 mph77%30.15 "Hg10 mi
10:20 PM59 °FClear.2 mph77%30.15 "Hg10 mi
9:50 PM61 °FClear.6 mph72%30.15 "Hg10 mi
9:20 PM61 °FClear.2 mph77%30.15 "Hg10 mi
8:50 PM61 °FSunny.3 mph77%30.15 "Hg10 mi
8:20 PM61 °FSunny.2 mph77%30.15 "Hg10 mi
7:50 PM63 °FSunny.1 mph68%30.15 "Hg10 mi
7:20 PM63 °FSunny.2 mph68%30.15 "Hg10 mi
Weather by CustomWeather, © 2014

See weather overviewHow to use our weather pages